EW7548 Weather Reports


time (UTC)temp
C
wind
direction
speed
KPH
gust
KPH
rain 1hr
cm
rain 24hr
cm
rain mn
cm
humidity
%
barometer
mb
20260503003052 16 226 0.0 3.2 0.00 0.00 0.00 39 1012.0
20260503001552 16 235 0.0 3.2 0.00 0.00 0.00 37 1012.0
20260502234548 17 239 0.0 4.8 0.00 0.00 0.00 36 1012.3
20260502233046 17 252 0.0 4.8 0.00 0.00 0.00 35 1012.4
20260502231607 17 254 0.0 8.0 0.00 0.00 0.00 36 1012.5
20260502230043 17 273 0.0 8.0 0.00 0.00 0.00 35 1012.7
20260502224540 17 269 4.8 14.5 0.00 0.00 0.00 33 1012.9
20260502223040 18 255 1.6 12.9 0.00 0.00 0.00 32 1013.0
20260502221538 18 282 1.6 8.0 0.00 0.00 0.00 35 1013.1
20260502220045 18 237 1.6 16.1 0.00 0.00 0.00 33 1013.3
20260502214534 18 278 1.6 12.9 0.00 0.00 0.00 33 1013.6
20260502213033 18 329 3.2 12.9 0.00 0.00 0.00 30 1013.7
20260502211530 18 221 1.6 12.9 0.00 0.00 0.00 34 1014.0
20260502210027 17 229 4.8 14.5 0.00 0.00 0.00 34 1014.2
20260502204526 18 279 8.0 16.1 0.00 0.00 0.00 32 1014.5
20260502203023 18 248 1.6 14.5 0.00 0.00 0.00 35 1014.7
20260502201520 18 288 1.6 16.1 0.00 0.00 0.00 30 1015.0
20260502200018 18 315 0.0 12.9 0.00 0.00 0.00 32 1015.3
20260502194515 17 290 1.6 12.9 0.00 0.00 0.00 33 1015.4
20260502193013 16 250 1.6 6.4 0.00 0.00 0.00 37 1015.7
20260502191510 16 317 3.2 19.3 0.00 0.00 0.00 29 1016.0
20260502190008 17 221 1.6 11.3 0.00 0.00 0.00 32 1016.3
20260502184508 17 201 1.6 4.8 0.00 0.00 0.00 34 1016.5
20260502183001 16 55 3.2 9.7 0.00 0.00 0.00 34 1016.9
20260502181559 16 261 1.6 12.9 0.00 0.00 0.00 35 1016.9
20260502163045 14 322 1.6 12.9 0.00 0.00 0.00 35 1018.4
20260502161557 13 273 1.6 14.5 0.00 0.00 0.00 40 1018.6
20260502151523 12 304 1.6 6.4 0.00 0.00 0.00 43 1018.8
20260502130104 5 238 1.6 3.2 0.00 0.00 0.00 67 1019.4
20260502123107 3 223 1.6 3.2 0.00 0.00 0.00 72 1019.6
20260502121528 2 221 1.6 3.2 0.00 0.00 0.00 73 1019.5
20260502114524 1 212 1.6 3.2 0.00 0.00 0.00 74 1019.3
20260502113023 1 220 1.6 3.2 0.00 0.00 0.00 75 1019.3
20260502111519 0 223 1.6 3.2 0.00 0.00 0.00 76 1019.3
20260502110018 0 220 1.6 3.2 0.00 0.00 0.00 76 1019.1
20260502104517 0 216 1.6 3.2 0.00 0.00 0.00 76 1019.1
20260502103017 0 225 1.6 3.2 0.00 0.00 0.00 75 1019.1
20260502101512 1 215 1.6 3.2 0.00 0.00 0.00 75 1019.2
20260502091505 1 220 0.0 3.2 0.00 0.00 0.00 73 1019.3
20260502090105 1 227 1.6 3.2 0.00 0.00 0.00 73 1019.2
20260502070057 1 209 1.6 1.6 0.00 0.00 0.00 73 1019.4
20260502064556 1 212 0.0 1.6 0.00 0.00 0.00 73 1019.5
20260502063100 1 208 0.0 3.2 0.00 0.00 0.00 73 1019.5
20260502061553 2 213 0.0 1.6 0.00 0.00 0.00 70 1019.6
20260502060050 2 213 1.6 1.6 0.00 0.00 0.00 69 1019.5
20260502054551 2 215 1.6 3.2 0.00 0.00 0.00 69 1019.5
20260502053048 2 210 1.6 1.6 0.00 0.00 0.00 68 1019.4
20260502051545 2 213 0.0 1.6 0.00 0.00 0.00 66 1019.5
20260502050041 3 222 1.6 3.2 0.00 0.00 0.00 64 1019.4
20260502044543 3 232 0.0 1.6 0.00 0.00 0.00 63 1019.4
20260502043045 3 244 0.0 1.6 0.00 0.00 0.00 61 1019.4
20260502041546 4 249 0.0 1.6 0.00 0.00 0.00 61 1019.4
20260502040039 4 279 0.0 1.6 0.00 0.00 0.00 60 1019.3
20260502034539 4 304 0.0 1.6 0.00 0.00 0.00 58 1019.3
20260502033044 5 330 0.0 0.0 0.00 0.00 0.00 56 1019.4
20260502031537 6 330 0.0 0.0 0.00 0.00 0.00 52 1019.3
20260502030036 6 334 0.0 0.0 0.00 0.00 0.00 49 1019.3
20260502024541 6 334 0.0 0.0 0.00 0.00 0.00 48 1019.3
20260502023035 7 334 0.0 1.6 0.00 0.00 0.00 50 1019.2
20260502021535 7 15 0.0 0.0 0.00 0.00 0.00 44 1019.1
20260502020033 8 15 0.0 0.0 0.00 0.00 0.00 43 1019.0
20260502014534 8 15 0.0 0.0 0.00 0.00 0.00 42 1018.9
20260502013031 8 15 0.0 0.0 0.00 0.00 0.00 42 1018.7
20260502011530 9 15 0.0 0.0 0.00 0.00 0.00 42 1018.7
20260502010033 9 15 0.0 3.2 0.00 0.00 0.00 41 1018.6
20260502004547 10 31 0.0 3.2 0.00 0.00 0.00 39 1018.5